owner,sensor,date,latitude,longitude,vertical_datum,wind_speed,wind_to_direction,wind_speed_of_gust,qcFlag 
TABS,ioos:station:wmo:42045:1,2007-02-01T00:00:00Z,26.2168,-96.4998,4.0,2.980218113,245.4129033,4.45,'11111222,11111222,11111222' 
TABS,ioos:station:wmo:42045:1,2007-02-01T00:30:00Z,26.2168,-96.4998,4.0,3.231547617,225.37622,5.28,'11111222,11111222,11111222' 
TABS,ioos:station:wmo:42045:1,2007-02-01T01:00:00Z,26.2168,-96.4998,4.0,2.830159006,227.0046346,4.49,'11111222,11111222,11111222' 
TABS,ioos:station:wmo:42045:1,2007-02-01T01:30:00Z,26.2168,-96.4998,4.0,2.880902636,220.2131173,5.13,'11111222,11111222,11111222' 
TABS,ioos:station:wmo:42045:1,2007-02-01T02:00:00Z,26.2168,-96.4998,4.0,2.300195644,212.0319223,4.61,'11111222,11111222,11111222' 
TABS,ioos:station:wmo:42045:1,2007-02-01T02:30:00Z,26.2168,-96.4998,4.0,1.871710448,209.4412708,3.24,'11111222,11111222,11111222' 
TABS,ioos:station:wmo:42045:1,2007-02-01T03:00:00Z,26.2168,-96.4998,4.0,2.481310138,194.70848,3.78,'11111222,11111222,11111222' 
TABS,ioos:station:wmo:42045:1,2007-02-01T03:30:00Z,26.2168,-96.4998,4.0,1.836355085,257.0989574,2.87,'11111222,11111222,11111222' 
TABS,ioos:station:wmo:42045:1,2007-02-01T04:00:00Z,26.2168,-96.4998,4.0,2.154738963,293.2334513,3.45,'11111222,11111222,11111222' 
TABS,ioos:station:wmo:42045:1,2007-02-01T04:30:00Z,26.2168,-96.4998,4.0,1.962371015,311.4879603,2.74,'11111222,11111222,11111222' 
TABS,ioos:station:wmo:42045:1,2007-02-01T05:00:00Z,26.2168,-96.4998,4.0,2.815848007,308.945717,4.09,'11111222,11111222,11111222' 
TABS,ioos:station:wmo:42045:1,2007-02-01T05:30:00Z,26.2168,-96.4998,4.0,2.728094573,318.7151752,3.73,'11111222,11111222,11111222' 
TABS,ioos:station:wmo:42045:1,2007-02-01T06:00:00Z,26.2168,-96.4998,4.0,2.302172887,320.640431,3.63,'11111222,11111222,11111222' 
TABS,ioos:station:wmo:42045:1,2007-02-01T06:30:00Z,26.2168,-96.4998,4.0,1.220655562,341.8617498,2.15,'11111222,11111222,11111222' 
TABS,ioos:station:wmo:42045:1,2007-02-01T07:00:00Z,26.2168,-96.4998,4.0,0.968968524,58.93448684,1.84,'11111222,11111222,11111222' 
TABS,ioos:station:wmo:42045:1,2007-02-01T07:30:00Z,26.2168,-96.4998,4.0,1.227721467,66.98487848,1.97,'11111222,11111222,11111222' 
TABS,ioos:station:wmo:42045:1,2007-02-01T08:00:00Z,26.2168,-96.4998,4.0,1.694963126,63.73693891,2.55,'11111222,11111222,11111222' 
TABS,ioos:station:wmo:42045:1,2007-02-01T08:30:00Z,26.2168,-96.4998,4.0,2.309718598,60.99323101,3.35,'11111222,11111222,11111222' 
TABS,ioos:station:wmo:42045:1,2007-02-01T09:00:00Z,26.2168,-96.4998,4.0,1.976689151,63.56421796,2.95,'11111222,11111222,11111222' 
TABS,ioos:station:wmo:42045:1,2007-02-01T09:30:00Z,26.2168,-96.4998,4.0,2.952642884,99.74983486,4.25,'11111222,11111222,11111222' 
TABS,ioos:station:wmo:42045:1,2007-02-01T10:00:00Z,26.2168,-96.4998,4.0,2.786485241,72.67012752,3.8,'11111222,11111222,11111222' 
TABS,ioos:station:wmo:42045:1,2007-02-01T10:30:00Z,26.2168,-96.4998,4.0,3.213098193,98.23137677,4.37,'11111222,11111222,11111222' 
TABS,ioos:station:wmo:42045:1,2007-02-01T11:00:00Z,26.2168,-96.4998,4.0,3.630495834,90.94737015,4.84,'11111222,11111222,11111222' 
TABS,ioos:station:wmo:42045:1,2007-02-01T11:30:00Z,26.2168,-96.4998,4.0,3.919706622,75.21885059,5.07,'11111222,11111222,11111222' 
TABS,ioos:station:wmo:42045:1,2007-02-01T12:00:00Z,26.2168,-96.4998,4.0,3.431981935,72.88461598,4.26,'11111222,11111222,11111222' 
TABS,ioos:station:wmo:42045:1,2007-02-01T12:30:00Z,26.2168,-96.4998,4.0,3.643350107,68.08141004,4.73,'11111222,11111222,11111222' 
TABS,ioos:station:wmo:42045:1,2007-02-01T13:00:00Z,26.2168,-96.4998,4.0,3.56931366,64.43967368,4.49,'11111222,11111222,11111222' 
TABS,ioos:station:wmo:42045:1,2007-02-01T13:30:00Z,26.2168,-96.4998,4.0,3.351477286,59.91549287,4.37,'11111222,11111222,11111222' 
TABS,ioos:station:wmo:42045:1,2007-02-01T14:00:00Z,26.2168,-96.4998,4.0,3.092458569,56.20681799,4.07,'11111222,11111222,11111222' 
TABS,ioos:station:wmo:42045:1,2007-02-01T14:30:00Z,26.2168,-96.4998,4.0,2.724187952,52.45672201,3.68,'11111222,11111222,11111222' 
TABS,ioos:station:wmo:42045:1,2007-02-01T15:00:00Z,26.2168,-96.4998,4.0,2.749618155,23.58138554,3.67,'11111222,11111222,11111222' 
TABS,ioos:station:wmo:42045:1,2007-02-01T15:30:00Z,26.2168,-96.4998,4.0,2.34957443,18.35758138,2.96,'11111222,11111222,11111222' 
TABS,ioos:station:wmo:42045:1,2007-02-01T16:00:00Z,26.2168,-96.4998,4.0,2.143665086,61.28253036,2.84,'11111222,11111222,11111222' 
TABS,ioos:station:wmo:42045:1,2007-02-01T16:30:00Z,26.2168,-96.4998,4.0,2.046582517,82.70095676,2.7,'11111222,11111222,11111222' 
TABS,ioos:station:wmo:42045:1,2007-02-01T17:00:00Z,26.2168,-96.4998,4.0,1.927537289,48.78578749,2.46,'11111222,11111222,11111222' 
TABS,ioos:station:wmo:42045:1,2007-02-01T17:30:00Z,26.2168,-96.4998,4.0,1.896154002,67.35652336,2.57,'11111222,11111222,11111222' 
TABS,ioos:station:wmo:42045:1,2007-02-01T18:00:00Z,26.2168,-96.4998,4.0,1.391869247,28.77444689,1.97,'11111222,11111222,11111222' 
TABS,ioos:station:wmo:42045:1,2007-02-01T18:30:00Z,26.2168,-96.4998,4.0,1.928756076,321.525644,3.02,'11111222,11111222,11111222' 
TABS,ioos:station:wmo:42045:1,2007-02-01T19:00:00Z,26.2168,-96.4998,4.0,4.942226219,309.7461043,5.98,'11111222,11111222,11111222' 
TABS,ioos:station:wmo:42045:1,2007-02-01T19:30:00Z,26.2168,-96.4998,4.0,4.243795471,313.6632389,5.43,'11111222,11111222,11111222' 
TABS,ioos:station:wmo:42045:1,2007-02-01T20:00:00Z,26.2168,-96.4998,4.0,4.022399781,331.6508632,5.26,'11111222,11111222,11111222' 
TABS,ioos:station:wmo:42045:1,2007-02-01T20:30:00Z,26.2168,-96.4998,4.0,3.556093362,321.1639328,4.99,'11111222,11111222,11111222' 
TABS,ioos:station:wmo:42045:1,2007-02-01T21:00:00Z,26.2168,-96.4998,4.0,3.645161176,321.6837432,4.67,'11111222,11111222,11111222' 
TABS,ioos:station:wmo:42045:1,2007-02-01T21:30:00Z,26.2168,-96.4998,4.0,3.692262179,323.8127758,4.97,'11111222,11111222,11111222' 
TABS,ioos:station:wmo:42045:1,2007-02-01T22:00:00Z,26.2168,-96.4998,4.0,5.684100632,333.5700378,6.89,'11111222,11111222,11111222' 
TABS,ioos:station:wmo:42045:1,2007-02-01T22:30:00Z,26.2168,-96.4998,4.0,6.188545871,337.0808606,7.72,'11111222,11111222,11111222' 
TABS,ioos:station:wmo:42045:1,2007-02-01T23:00:00Z,26.2168,-96.4998,4.0,5.966472995,345.6375096,7.28,'11111222,11111222,11111222' 
TABS,ioos:station:wmo:42045:1,2007-02-01T23:30:00Z,26.2168,-96.4998,4.0,5.556473702,331.8667123,7.12,'11111222,11111222,11111222' 
TABS,ioos:station:wmo:42045:1,2007-02-02T00:00:00Z,26.2168,-96.4998,4.0,6.126940509,337.2433026,7.87,'11111222,11111222,11111222' 
TABS,ioos:station:wmo:42045:1,2007-02-02T00:30:00Z,26.2168,-96.4998,4.0,6.322784197,348.6898835,7.91,'11111222,11111222,11111222' 
TABS,ioos:station:wmo:42045:1,2007-02-02T01:00:00Z,26.2168,-96.4998,4.0,7.375127118,351.8147727,9.26,'11111222,11111222,11111222' 
TABS,ioos:station:wmo:42045:1,2007-02-02T01:30:00Z,26.2168,-96.4998,4.0,7.260110192,359.6841142,8.76,'11111222,11144222,11111222' 
TABS,ioos:station:wmo:42045:1,2007-02-02T02:00:00Z,26.2168,-96.4998,4.0,6.785646616,11.47528946,8.77,'11111222,11111222,11111222' 
TABS,ioos:station:wmo:42045:1,2007-02-02T02:30:00Z,26.2168,-96.4998,4.0,6.744627492,21.390999,8.99,'11111222,11111222,11111222' 
TABS,ioos:station:wmo:42045:1,2007-02-02T03:00:00Z,26.2168,-96.4998,4.0,5.943904441,24.23626858,7.73,'11111222,11111222,11111222' 
TABS,ioos:station:wmo:42045:1,2007-02-02T03:30:00Z,26.2168,-96.4998,4.0,5.103577177,42.37910503,6.43,'11111222,11111222,11111222' 
TABS,ioos:station:wmo:42045:1,2007-02-02T04:00:00Z,26.2168,-96.4998,4.0,4.695540437,56.37727565,6.13,'11111222,11111222,11111222' 
TABS,ioos:station:wmo:42045:1,2007-02-02T04:30:00Z,26.2168,-96.4998,4.0,4.724828039,43.62759587,6.04,'11111222,11111222,11111222' 
TABS,ioos:station:wmo:42045:1,2007-02-02T05:00:00Z,26.2168,-96.4998,4.0,4.945179471,35.61819609,6.19,'11111222,11111222,11111222' 
TABS,ioos:station:wmo:42045:1,2007-02-02T05:30:00Z,26.2168,-96.4998,4.0,5.404738662,28.27175951,6.94,'11111222,11111222,11111222' 
TABS,ioos:station:wmo:42045:1,2007-02-02T06:00:00Z,26.2168,-96.4998,4.0,5.471608539,22.9095813,6.91,'11111222,11111222,11111222' 
TABS,ioos:station:wmo:42045:1,2007-02-02T06:30:00Z,26.2168,-96.4998,4.0,5.984262695,13.03743379,7.32,'11111222,11111222,11111222' 
TABS,ioos:station:wmo:42045:1,2007-02-02T07:00:00Z,26.2168,-96.4998,4.0,5.422444098,22.21319867,6.79,'11111222,11111222,11111222' 
TABS,ioos:station:wmo:42045:1,2007-02-02T07:30:00Z,26.2168,-96.4998,4.0,4.826033568,37.0833011,6.17,'11111222,11111222,11111222' 
TABS,ioos:station:wmo:42045:1,2007-02-02T08:00:00Z,26.2168,-96.4998,4.0,5.057509268,50.45519335,6.32,'11111222,11111222,11111222' 
TABS,ioos:station:wmo:42045:1,2007-02-02T08:30:00Z,26.2168,-96.4998,4.0,4.93844105,53.89552048,6.52,'11111222,11111222,11111222' 
TABS,ioos:station:wmo:42045:1,2007-02-02T09:00:00Z,26.2168,-96.4998,4.0,6.044675343,50.43682635,7.67,'11111222,11111222,11111222' 
TABS,ioos:station:wmo:42045:1,2007-02-02T09:30:00Z,26.2168,-96.4998,4.0,6.518051856,60.0912217,8.35,'11111222,11111222,11111222' 
TABS,ioos:station:wmo:42045:1,2007-02-02T10:00:00Z,26.2168,-96.4998,4.0,6.400851506,64.55553579,8.28,'11111222,11111222,11111222' 
TABS,ioos:station:wmo:42045:1,2007-02-02T10:30:00Z,26.2168,-96.4998,4.0,7.045565982,59.64955416,9.08,'11111222,11111222,11111222' 
TABS,ioos:station:wmo:42045:1,2007-02-02T11:00:00Z,26.2168,-96.4998,4.0,7.602585087,61.47940614,9.51,'11111222,11111222,11111222' 
TABS,ioos:station:wmo:42045:1,2007-02-02T11:30:00Z,26.2168,-96.4998,4.0,7.204567995,72.47006035,9.24,'11111222,11111222,11111222' 
TABS,ioos:station:wmo:42045:1,2007-02-02T12:00:00Z,26.2168,-96.4998,4.0,6.876954268,66.15557784,8.94,'11111222,11111222,11111222' 
TABS,ioos:station:wmo:42045:1,2007-02-02T12:30:00Z,26.2168,-96.4998,4.0,6.906243552,52.64858183,9.17,'11111222,11111222,11111222' 
TABS,ioos:station:wmo:42045:1,2007-02-02T13:00:00Z,26.2168,-96.4998,4.0,6.951560976,49.55035686,9.29,'11111222,11111222,11111222' 
TABS,ioos:station:wmo:42045:1,2007-02-02T13:30:00Z,26.2168,-96.4998,4.0,6.795917892,44.22466042,8.75,'11111222,11111222,11111222' 
TABS,ioos:station:wmo:42045:1,2007-02-02T14:00:00Z,26.2168,-96.4998,4.0,7.507449634,39.05283516,10.07,'11111222,11111222,11111222' 
TABS,ioos:station:wmo:42045:1,2007-02-02T14:30:00Z,26.2168,-96.4998,4.0,7.621581201,33.71062823,9.93,'11111222,11111222,11111222' 
TABS,ioos:station:wmo:42045:1,2007-02-02T15:00:00Z,26.2168,-96.4998,4.0,8.249175716,34.47961442,10.71,'11111222,11111222,11111222' 
TABS,ioos:station:wmo:42045:1,2007-02-02T15:30:00Z,26.2168,-96.4998,4.0,8.334056635,35.0818419,10.72,'11111222,11111222,11111222' 
TABS,ioos:station:wmo:42045:1,2007-02-02T16:00:00Z,26.2168,-96.4998,4.0,8.38760991,41.51977495,10.9,'11111222,11111222,11111222' 
TABS,ioos:station:wmo:42045:1,2007-02-02T16:30:00Z,26.2168,-96.4998,4.0,8.145728942,39.67017904,10.51,'11111222,11111222,11111222' 
TABS,ioos:station:wmo:42045:1,2007-02-02T17:00:00Z,26.2168,-96.4998,4.0,8.423496899,46.2021871,10.76,'11111222,11111222,11111222' 
TABS,ioos:station:wmo:42045:1,2007-02-02T17:30:00Z,26.2168,-96.4998,4.0,8.174154391,44.99968431,10.47,'11111222,11111222,11111222' 
TABS,ioos:station:wmo:42045:1,2007-02-02T18:00:00Z,26.2168,-96.4998,4.0,8.008058441,43.27930757,10.22,'11111222,11111222,11111222' 
TABS,ioos:station:wmo:42045:1,2007-02-02T18:30:00Z,26.2168,-96.4998,4.0,7.962135392,45.30498682,10.97,'11111222,11111222,11111222' 
TABS,ioos:station:wmo:42045:1,2007-02-02T19:00:00Z,26.2168,-96.4998,4.0,7.755804278,50.9129785,10.21,'11111222,11111222,11111222' 
TABS,ioos:station:wmo:42045:1,2007-02-02T19:30:00Z,26.2168,-96.4998,4.0,7.247965232,55.45449494,9.6,'11111222,11111222,11111222' 
TABS,ioos:station:wmo:42045:1,2007-02-02T20:00:00Z,26.2168,-96.4998,4.0,7.055813206,47.35454749,9.39,'11111222,11111222,11111222' 
TABS,ioos:station:wmo:42045:1,2007-02-02T20:30:00Z,26.2168,-96.4998,4.0,6.745932108,44.63933909,8.56,'11111222,11111222,11111222' 
TABS,ioos:station:wmo:42045:1,2007-02-02T21:00:00Z,26.2168,-96.4998,4.0,7.069066416,39.43167327,8.74,'11111222,11111222,11111222' 
TABS,ioos:station:wmo:42045:1,2007-02-02T21:30:00Z,26.2168,-96.4998,4.0,7.358763483,36.04425192,9.36,'11111222,11111222,11111222' 
TABS,ioos:station:wmo:42045:1,2007-02-02T22:00:00Z,26.2168,-96.4998,4.0,7.608652969,48.51622359,9.49,'11111222,11111222,11111222' 
TABS,ioos:station:wmo:42045:1,2007-02-02T22:30:00Z,26.2168,-96.4998,4.0,7.601427498,45.15957872,9.77,'11111222,11111222,11111222' 
TABS,ioos:station:wmo:42045:1,2007-02-02T23:00:00Z,26.2168,-96.4998,4.0,7.961890479,42.60739074,10.62,'11111222,11111222,11111222' 
TABS,ioos:station:wmo:42045:1,2007-02-02T23:30:00Z,26.2168,-96.4998,4.0,7.720524594,42.74263736,10.33,'11111222,11111222,11111222' 
TABS,ioos:station:wmo:42045:1,2007-02-03T00:00:00Z,26.2168,-96.4998,4.0,8.808002044,36.83057124,12.22,'11111222,11111222,11111222' 
TABS,ioos:station:wmo:42045:1,2007-02-03T00:30:00Z,26.2168,-96.4998,4.0,8.816314423,38.18247761,11.5,'11111222,11111222,11111222' 
TABS,ioos:station:wmo:42045:1,2007-02-03T01:00:00Z,26.2168,-96.4998,4.0,8.767970119,39.86383493,10.99,'11111222,11111222,11111222' 
TABS,ioos:station:wmo:42045:1,2007-02-03T01:30:00Z,26.2168,-96.4998,4.0,8.612978579,44.43521346,10.95,'11111222,11111222,11111222' 
TABS,ioos:station:wmo:42045:1,2007-02-03T02:00:00Z,26.2168,-96.4998,4.0,8.445383354,39.57073544,11.48,'11111222,11111222,11111222' 
TABS,ioos:station:wmo:42045:1,2007-02-03T02:30:00Z,26.2168,-96.4998,4.0,8.72321615,40.02392006,11.3,'11111222,11111222,11111222' 
TABS,ioos:station:wmo:42045:1,2007-02-03T03:00:00Z,26.2168,-96.4998,4.0,8.376926644,41.9513165,11.08,'11111222,11111222,11111222' 
TABS,ioos:station:wmo:42045:1,2007-02-03T03:30:00Z,26.2168,-96.4998,4.0,8.171780712,41.92436543,10.66,'11111222,11111222,11111222' 
TABS,ioos:station:wmo:42045:1,2007-02-03T04:00:00Z,26.2168,-96.4998,4.0,7.665246245,45.42252273,11.2,'11111222,11111222,11111222' 
TABS,ioos:station:wmo:42045:1,2007-02-03T04:30:00Z,26.2168,-96.4998,4.0,8.024076271,50.2580981,10.42,'11111222,11111222,11111222' 
TABS,ioos:station:wmo:42045:1,2007-02-03T05:00:00Z,26.2168,-96.4998,4.0,8.308868756,45.53605341,11.91,'11111222,11111222,11111222' 
TABS,ioos:station:wmo:42045:1,2007-02-03T05:30:00Z,26.2168,-96.4998,4.0,8.09208255,46.50184822,10.36,'11111222,11111222,11111222' 
TABS,ioos:station:wmo:42045:1,2007-02-03T06:00:00Z,26.2168,-96.4998,4.0,8.613042436,61.6493297,11.3,'11111222,11111222,11111222' 
TABS,ioos:station:wmo:42045:1,2007-02-03T06:30:00Z,26.2168,-96.4998,4.0,8.240831269,65.02054637,10.97,'11111222,11111222,11111222' 
TABS,ioos:station:wmo:42045:1,2007-02-03T07:00:00Z,26.2168,-96.4998,4.0,7.766092969,59.76976548,9.85,'11111222,11111222,11111222' 
TABS,ioos:station:wmo:42045:1,2007-02-03T07:30:00Z,26.2168,-96.4998,4.0,8.188785014,66.15791794,11.24,'11111222,11111222,11111222' 
TABS,ioos:station:wmo:42045:1,2007-02-03T08:00:00Z,26.2168,-96.4998,4.0,7.879016436,70.34580098,10.55,'11111222,11111222,11111222' 
TABS,ioos:station:wmo:42045:1,2007-02-03T08:30:00Z,26.2168,-96.4998,4.0,7.451234797,76.65341934,9.46,'11111222,11111222,11111222' 
TABS,ioos:station:wmo:42045:1,2007-02-03T09:00:00Z,26.2168,-96.4998,4.0,0.0,0.0,0.0,'11111222,11111222,11111222' 
TABS,ioos:station:wmo:42045:1,2007-02-03T09:30:00Z,26.2168,-96.4998,4.0,0.0,0.0,0.0,'11111222,11111222,11111222' 
TABS,ioos:station:wmo:42045:1,2007-02-03T10:00:00Z,26.2168,-96.4998,4.0,0.0,0.0,0.0,'11111222,11111222,11111222' 
TABS,ioos:station:wmo:42045:1,2007-02-03T10:30:00Z,26.2168,-96.4998,4.0,0.0,0.0,0.0,'11111222,11111222,11111222' 
TABS,ioos:station:wmo:42045:1,2007-02-03T11:00:00Z,26.2168,-96.4998,4.0,0.0,0.0,0.0,'11111222,11111222,11111222' 
TABS,ioos:station:wmo:42045:1,2007-02-03T11:30:00Z,26.2168,-96.4998,4.0,0.0,0.0,0.0,'11111222,11111222,11111222' 
TABS,ioos:station:wmo:42045:1,2007-02-03T12:00:00Z,26.2168,-96.4998,4.0,0.0,0.0,0.0,'11111222,11111222,11111222' 
TABS,ioos:station:wmo:42045:1,2007-02-03T12:30:00Z,26.2168,-96.4998,4.0,0.0,0.0,0.0,'11111222,11111222,11111222' 
TABS,ioos:station:wmo:42045:1,2007-02-03T13:00:00Z,26.2168,-96.4998,4.0,0.0,0.0,0.0,'11111222,11111222,11111222' 
TABS,ioos:station:wmo:42045:1,2007-02-03T13:30:00Z,26.2168,-96.4998,4.0,0.0,0.0,0.0,'11111222,11111222,11111222' 
TABS,ioos:station:wmo:42045:1,2007-02-03T14:00:00Z,26.2168,-96.4998,4.0,0.0,0.0,0.0,'11111222,11111222,11111222' 
TABS,ioos:station:wmo:42045:1,2007-02-03T14:30:00Z,26.2168,-96.4998,4.0,0.0,0.0,0.0,'11111222,11111222,11111222' 
TABS,ioos:station:wmo:42045:1,2007-02-03T15:00:00Z,26.2168,-96.4998,4.0,0.0,0.0,0.0,'11111222,11111222,11111222' 
TABS,ioos:station:wmo:42045:1,2007-02-03T15:30:00Z,26.2168,-96.4998,4.0,0.0,0.0,0.0,'11111222,11111222,11111222' 
TABS,ioos:station:wmo:42045:1,2007-02-03T16:00:00Z,26.2168,-96.4998,4.0,0.0,0.0,0.0,'11111222,11111222,11111222' 
TABS,ioos:station:wmo:42045:1,2007-02-03T16:30:00Z,26.2168,-96.4998,4.0,0.0,0.0,0.0,'11111222,11111222,11111222' 
TABS,ioos:station:wmo:42045:1,2007-02-03T17:00:00Z,26.2168,-96.4998,4.0,0.0,0.0,0.0,'11111222,11111222,11111222' 
TABS,ioos:station:wmo:42045:1,2007-02-03T17:30:00Z,26.2168,-96.4998,4.0,0.0,0.0,0.0,'11111222,11111222,11111222' 
TABS,ioos:station:wmo:42045:1,2007-02-04T00:00:00Z,26.2168,-96.4998,4.0,0.0,0.0,0.0,'11111222,11111222,11111222' 
TABS,ioos:station:wmo:42045:1,2007-02-04T00:30:00Z,26.2168,-96.4998,4.0,0.0,0.0,0.0,'11111222,11111222,11111222' 
TABS,ioos:station:wmo:42045:1,2007-02-04T01:00:00Z,26.2168,-96.4998,4.0,0.0,0.0,0.0,'11111222,11111222,11111222' 
TABS,ioos:station:wmo:42045:1,2007-02-04T01:30:00Z,26.2168,-96.4998,4.0,0.0,0.0,0.0,'11111222,11111222,11111222' 
TABS,ioos:station:wmo:42045:1,2007-02-04T02:00:00Z,26.2168,-96.4998,4.0,0.0,0.0,0.0,'11111222,11111222,11111222' 
TABS,ioos:station:wmo:42045:1,2007-02-04T02:30:00Z,26.2168,-96.4998,4.0,0.0,0.0,0.0,'11111222,11111222,11111222' 
TABS,ioos:station:wmo:42045:1,2007-02-04T03:00:00Z,26.2168,-96.4998,4.0,0.0,0.0,0.0,'11111222,11111222,11111222' 
TABS,ioos:station:wmo:42045:1,2007-02-04T03:30:00Z,26.2168,-96.4998,4.0,0.0,0.0,0.0,'11111222,11111222,11111222' 
TABS,ioos:station:wmo:42045:1,2007-02-04T04:00:00Z,26.2168,-96.4998,4.0,0.0,0.0,0.0,'11111222,11111222,11111222' 
TABS,ioos:station:wmo:42045:1,2007-02-04T04:30:00Z,26.2168,-96.4998,4.0,0.0,0.0,0.0,'11111222,11111222,11111222' 
TABS,ioos:station:wmo:42045:1,2007-02-04T05:00:00Z,26.2168,-96.4998,4.0,0.0,0.0,0.0,'11111222,11111222,11111222' 
TABS,ioos:station:wmo:42045:1,2007-02-04T05:30:00Z,26.2168,-96.4998,4.0,0.0,0.0,0.0,'11111222,11111222,11111222' 
TABS,ioos:station:wmo:42045:1,2007-02-04T06:00:00Z,26.2168,-96.4998,4.0,0.0,0.0,0.0,'11111222,11111222,11111222' 
TABS,ioos:station:wmo:42045:1,2007-02-04T06:30:00Z,26.2168,-96.4998,4.0,0.0,0.0,0.0,'11111222,11111222,11111222' 
TABS,ioos:station:wmo:42045:1,2007-02-04T07:00:00Z,26.2168,-96.4998,4.0,0.0,0.0,0.0,'11111222,11111222,11111222' 
TABS,ioos:station:wmo:42045:1,2007-02-04T07:30:00Z,26.2168,-96.4998,4.0,0.0,0.0,0.0,'11111222,11111222,11111222' 
TABS,ioos:station:wmo:42045:1,2007-02-04T08:00:00Z,26.2168,-96.4998,4.0,0.0,0.0,0.0,'11111222,11111222,11111222' 
TABS,ioos:station:wmo:42045:1,2007-02-04T08:30:00Z,26.2168,-96.4998,4.0,0.0,0.0,0.0,'11111222,11111222,11111222' 
TABS,ioos:station:wmo:42045:1,2007-02-04T09:00:00Z,26.2168,-96.4998,4.0,0.0,0.0,0.0,'11111222,11111222,11111222' 
TABS,ioos:station:wmo:42045:1,2007-02-04T09:30:00Z,26.2168,-96.4998,4.0,0.0,0.0,0.0,'11111222,11111222,11111222' 
TABS,ioos:station:wmo:42045:1,2007-02-04T10:00:00Z,26.2168,-96.4998,4.0,0.0,0.0,0.0,'11111222,11111222,11111222' 
TABS,ioos:station:wmo:42045:1,2007-02-04T10:30:00Z,26.2168,-96.4998,4.0,0.0,0.0,0.0,'11111222,11111222,11111222' 
TABS,ioos:station:wmo:42045:1,2007-02-04T11:00:00Z,26.2168,-96.4998,4.0,0.0,0.0,0.0,'11111222,11111222,11111222' 
TABS,ioos:station:wmo:42045:1,2007-02-04T11:30:00Z,26.2168,-96.4998,4.0,0.0,0.0,0.0,'11111222,11111222,11111222' 
TABS,ioos:station:wmo:42045:1,2007-02-04T12:00:00Z,26.2168,-96.4998,4.0,0.0,0.0,0.0,'11111222,11111222,11111222' 
TABS,ioos:station:wmo:42045:1,2007-02-04T12:30:00Z,26.2168,-96.4998,4.0,0.0,0.0,0.0,'11111222,11111222,11111222' 
TABS,ioos:station:wmo:42045:1,2007-02-04T13:00:00Z,26.2168,-96.4998,4.0,0.0,0.0,0.0,'11111222,11111222,11111222' 
TABS,ioos:station:wmo:42045:1,2007-02-04T13:30:00Z,26.2168,-96.4998,4.0,0.0,0.0,0.0,'11111222,11111222,11111222' 
TABS,ioos:station:wmo:42045:1,2007-02-04T14:00:00Z,26.2168,-96.4998,4.0,0.0,0.0,0.0,'11111222,11111222,11111222' 
TABS,ioos:station:wmo:42045:1,2007-02-04T14:30:00Z,26.2168,-96.4998,4.0,0.0,0.0,0.0,'11111222,11111222,11111222' 
TABS,ioos:station:wmo:42045:1,2007-02-04T15:00:00Z,26.2168,-96.4998,4.0,0.0,0.0,0.0,'11111222,11111222,11111222' 
TABS,ioos:station:wmo:42045:1,2007-02-04T15:30:00Z,26.2168,-96.4998,4.0,0.0,0.0,0.0,'11111222,11111222,11111222' 
TABS,ioos:station:wmo:42045:1,2007-02-04T16:00:00Z,26.2168,-96.4998,4.0,0.0,0.0,0.0,'11111222,11111222,11111222' 
TABS,ioos:station:wmo:42045:1,2007-02-04T16:30:00Z,26.2168,-96.4998,4.0,0.0,0.0,0.0,'11111222,11111222,11111222' 
TABS,ioos:station:wmo:42045:1,2007-02-04T17:00:00Z,26.2168,-96.4998,4.0,0.0,0.0,0.0,'11111222,11111222,11111222' 
TABS,ioos:station:wmo:42045:1,2007-02-04T17:30:00Z,26.2168,-96.4998,4.0,0.0,0.0,0.0,'11111222,11111222,11111222' 
TABS,ioos:station:wmo:42045:1,2007-02-04T18:00:00Z,26.2168,-96.4998,4.0,0.0,0.0,0.0,'11111222,11111222,11111222' 
TABS,ioos:station:wmo:42045:1,2007-02-04T18:30:00Z,26.2168,-96.4998,4.0,0.0,0.0,0.0,'11111222,11111222,11111222' 
TABS,ioos:station:wmo:42045:1,2007-02-04T19:00:00Z,26.2168,-96.4998,4.0,0.0,0.0,0.0,'11111222,11111222,11111222' 
TABS,ioos:station:wmo:42045:1,2007-02-04T19:30:00Z,26.2168,-96.4998,4.0,0.0,0.0,0.0,'11111222,11111222,11111222' 
TABS,ioos:station:wmo:42045:1,2007-02-04T20:00:00Z,26.2168,-96.4998,4.0,0.0,0.0,0.0,'11111222,11111222,11111222' 
TABS,ioos:station:wmo:42045:1,2007-02-04T20:30:00Z,26.2168,-96.4998,4.0,0.0,0.0,0.0,'11111222,11111222,11111222' 
TABS,ioos:station:wmo:42045:1,2007-02-04T21:00:00Z,26.2168,-96.4998,4.0,0.0,0.0,0.0,'11111222,11111222,11111222' 
TABS,ioos:station:wmo:42045:1,2007-02-04T21:30:00Z,26.2168,-96.4998,4.0,0.0,0.0,0.0,'11111222,11111222,11111222' 
TABS,ioos:station:wmo:42045:1,2007-02-05T00:00:00Z,26.2168,-96.4998,4.0,0.0,0.0,0.0,'11111222,11111222,11111222' 
TABS,ioos:station:wmo:42045:1,2007-02-05T00:30:00Z,26.2168,-96.4998,4.0,0.0,0.0,0.0,'11111222,11111222,11111222' 
TABS,ioos:station:wmo:42045:1,2007-02-05T01:00:00Z,26.2168,-96.4998,4.0,0.0,0.0,0.0,'11111222,11111222,11111222' 
TABS,ioos:station:wmo:42045:1,2007-02-05T01:30:00Z,26.2168,-96.4998,4.0,0.0,0.0,0.0,'11111222,11111222,11111222' 
TABS,ioos:station:wmo:42045:1,2007-02-05T02:00:00Z,26.2168,-96.4998,4.0,0.0,0.0,0.0,'11111222,11111222,11111222' 
TABS,ioos:station:wmo:42045:1,2007-02-05T02:30:00Z,26.2168,-96.4998,4.0,0.0,0.0,0.0,'11111222,11111222,11111222' 
TABS,ioos:station:wmo:42045:1,2007-02-05T03:00:00Z,26.2168,-96.4998,4.0,0.0,0.0,0.0,'11111222,11111222,11111222' 
TABS,ioos:station:wmo:42045:1,2007-02-05T03:30:00Z,26.2168,-96.4998,4.0,0.0,0.0,0.0,'11111222,11111222,11111222' 
TABS,ioos:station:wmo:42045:1,2007-02-05T04:00:00Z,26.2168,-96.4998,4.0,0.0,0.0,0.0,'11111222,11111222,11111222' 
TABS,ioos:station:wmo:42045:1,2007-02-05T04:30:00Z,26.2168,-96.4998,4.0,0.0,0.0,0.0,'11111222,11111222,11111222' 
TABS,ioos:station:wmo:42045:1,2007-02-05T05:00:00Z,26.2168,-96.4998,4.0,0.0,0.0,0.0,'11111222,11111222,11111222' 
TABS,ioos:station:wmo:42045:1,2007-02-05T05:30:00Z,26.2168,-96.4998,4.0,0.0,0.0,0.0,'11111222,11111222,11111222' 
TABS,ioos:station:wmo:42045:1,2007-02-05T06:00:00Z,26.2168,-96.4998,4.0,0.0,0.0,0.0,'11111222,11111222,11111222' 
TABS,ioos:station:wmo:42045:1,2007-02-05T06:30:00Z,26.2168,-96.4998,4.0,0.0,0.0,0.0,'11111222,11111222,11111222' 
TABS,ioos:station:wmo:42045:1,2007-02-05T07:00:00Z,26.2168,-96.4998,4.0,0.0,0.0,0.0,'11111222,11111222,11111222' 
TABS,ioos:station:wmo:42045:1,2007-02-05T07:30:00Z,26.2168,-96.4998,4.0,0.0,0.0,0.0,'11111222,11111222,11111222' 